CZ-6A DEB

Satellite information

Favourite Embed

Satellite Type and Status

DEBRISIN ORBIT

Key statistics

Satellite CZ-6A DEB at a glance.

Uptime

335

Days in orbit

Revolutions

≈ 14.1

Per day

Orbit

LEO

Low Earth Orbit

Inclination

88.9

Latest

Satellite identification and parameters

Extended collection of information and parameters for CZ-6A DEB.

Object identification

Identified? True

Debris? True

Object name: CZ-6A DEB

International designator: 2024-140SJ

Object number (NORAD): 61273

Object ID (CCSDS): 61273

Country: PEOPLES REPUBLIC OF CHINA (PRC)

Current information (Y/N): Y

RCS size: SMALL

Orbital parameters

Period: 102.154 minutes

Inclination: 88.8534 deg

SMA: 7238.775 km

Apoapsis: 931.637 km

Periapsis: 789.642 km

RAAN: 308.6871 deg

Eccentricy: 0.0098079

Argument of periapsis: 253.3477 deg

Mean anomaly: 105.6922 deg

Mean motion: 14.09630182 rev/day

Mean motion (dot): 0.00002815 rev/day2

B* drag term: 0.0015304 1/REarth

Two-line elements (TLE)

Creation date: July 6, 2025, 6:05 p.m.

Reference frame: TEME

Reference center: EARTH

Epoch: July 6, 2025, 9 a.m. UTC

TLE line 0: 0 CZ-6A DEB

TLE line 1: 1 61273U 24140SJ 25187.37558756 .00002815 00000-0 15304-2 0 9990

TLE line 2: 2 61273 88.8534 308.6871 0098079 253.3477 105.6922 14.09630182 44281

Live tracking on map

Real-time ground track for satellite CZ-6A DEB.

In-orbit conjunctions

A list of the most updated potential collisions computed for object CZ-6A DEB.

Target Orbit TCA Probability of collision Miss distance Type
OBJECT E SSO 2025-03-05 17:27:31 0.0007636761 700.0 (m) UNKNOWN
CZ-6A DEB LEO 2025-03-04 09:05:51 0.0001134651 961.0 (m) DEBRIS
CZ-6A DEB LEO 2025-02-03 06:49:48 0.0002333294 746.0 (m) DEBRIS
COSMOS 2251 DEB LEO 2024-10-15 06:57:11 0.000100554 433.0 (m) DEBRIS

Associated space launch

18 Low Earth Orbit communication satellites with Ku, Q and V band payloads for the G60 constellation operated by Shanghai Spacecom Satellite Technology (SSST) with funding backed by the Shanghai local government. Initial constellation will consist of 1296 satellites by 2027 with long term plans to expand it to 12000 satellites.

CZ-6A DEB was lifted into orbit during the mission ‘Long March 6A | G60 Polar Group 01’, on board a Long March 6A space rocket.

The launch took place on Aug. 6, 2024, 6:42 a.m. from Launch Complex 9A.

For more information about the launch, click the button.

Launch to space Long March 6A | G60 Polar Group 01
Long March 6A | G60 Polar Group 01

Agency: N/A

Status: Launch Successful

Launch date: Aug. 6, 2024, 6:42 a.m. UTC

Rocket: Long March 6A

Launch pad: Launch Complex 9A

Location: Taiyuan Satellite Launch Center, People's Republic of China

...

Latest news about this satellite

News about space launch
Brightness of first Chinese broadband constellation satellites alarms astronomers

The first satellites of a Chinese broadband constellation are significantly brighter than those of Western systems, posing a new challenge for astronomers.

News about space launch
Chinese rocket stage breaks up into cloud of more than 700 pieces of space debris

HELSINKI — A Chinese Long March 6A rocket’s upper stage has fragmented into a cloud of over 700 pieces of space debris, adding to concerns about long-term orbital safety. China […]

News about space launch
China's Thousand Sails Megaconstellation Kicks Off with Dangerous Debris Field

China's Thousand Sails Megaconstellation Kicks Off with Dangerous Debris Field


Newsletter sign-up

Weekly statistics, charts and insights to help you stay on top of the space industry.